Simultaneous Nadir Overpasses (SNOs) Predictions

Prediction of SNOs between METOP-B and TERRA Satellite Orbit:

Table of predicted SNOs for the next 14.0 days since TLE Epoch: 10/26/2024
Index Date (METOP-B) Time (METOP-B) Lat,Lon (METOP-B) SZA (METOP-B ) Date (TERRA) Time (TERRA) Lat,Lon (TERRA) SZA (TERRA ) Distance(km) Time Diff (sec)
1 10/26/2024 21:20:00 79.57,-125.73 92.87 10/26/2024 21:20:44 79.57,-125.82 92.87 1.87 44
2 10/26/2024 22:10:35 -79.77, 43.30 86.84 10/26/2024 22:10:00 -79.77, 43.28 86.85 0.35 35
3 10/29/2024 11:50:05 79.63, 17.17 93.81 10/29/2024 11:50:31 79.62, 17.07 93.81 2.15 26
4 10/29/2024 12:40:40 -79.83,-173.77 85.89 10/29/2024 12:39:47 -79.83,-173.84 85.91 1.37 53
5 11/01/2024 02:20:12 79.64, 159.70 94.67 11/01/2024 02:20:19 79.63, 159.64 94.66 1.26 7
6 11/01/2024 03:10:46 -79.87, -30.93 84.99 11/01/2024 03:09:34 -79.87, -31.00 85.01 1.32 72
7 11/03/2024 15:59:44 -79.47, 133.45 84.77 11/03/2024 16:00:51 -79.46, 133.34 84.77 2.47 67
8 11/03/2024 16:50:18 79.67, -57.59 95.53 11/03/2024 16:50:05 79.67, -57.56 95.53 0.86 13
9 11/06/2024 06:29:50 -79.49, -83.92 83.95 11/06/2024 06:30:36 -79.50, -83.93 83.94 0.24 46
10 11/06/2024 07:20:22 79.75, 85.58 96.43 11/06/2024 07:19:49 79.75, 85.46 96.41 2.42 33
11 11/08/2024 20:59:54 -79.57, 59.14 83.09 11/08/2024 21:00:19 -79.56, 59.02 83.11 2.73 25



Historial Predications of SNOs between METOP-B and TERRA
